TimeAKST,TemperatureF,Dew PointF,Humidity,Sea Level PressureIn,VisibilityMPH,Wind Direction,Wind SpeedMPH,Gust SpeedMPH,PrecipitationIn,Events,Conditions,WindDirDegrees,DateUTC
12:53 AM,16.0,-5.1,39,30.19,10.0,NNE,6.9,-,N/A,,Overcast,30,2013-11-18 09:53:00
1:53 AM,16.0,-5.1,39,30.19,10.0,NNE,9.2,-,N/A,,Overcast,30,2013-11-18 10:53:00
2:53 AM,16.0,-8.0,34,30.20,10.0,NNE,10.4,-,N/A,,Overcast,20,2013-11-18 11:53:00
3:53 AM,15.1,-9.0,34,30.20,10.0,NNE,11.5,20.7,N/A,,Overcast,20,2013-11-18 12:53:00
4:53 AM,15.1,-9.9,32,30.20,10.0,NNE,12.7,23.0,N/A,,Overcast,20,2013-11-18 13:53:00
5:53 AM,14.0,-9.0,35,30.20,10.0,NNE,11.5,-,N/A,,Overcast,20,2013-11-18 14:53:00
6:53 AM,14.0,-9.0,35,30.21,10.0,NNE,10.4,-,N/A,,Overcast,20,2013-11-18 15:53:00
7:53 AM,12.9,-8.0,39,30.21,10.0,NNE,9.2,-,N/A,,Mostly Cloudy,20,2013-11-18 16:53:00
8:53 AM,14.0,-9.9,34,30.22,10.0,NNE,11.5,17.3,N/A,,Mostly Cloudy,20,2013-11-18 17:53:00
9:53 AM,14.0,-9.0,35,30.22,10.0,NNE,10.4,16.1,N/A,,Mostly Cloudy,30,2013-11-18 18:53:00
10:53 AM,14.0,-7.1,39,30.22,10.0,NNE,12.7,18.4,N/A,,Mostly Cloudy,30,2013-11-18 19:53:00
11:53 AM,15.1,-8.0,36,30.21,10.0,NE,13.8,-,N/A,,Scattered Clouds,40,2013-11-18 20:53:00
12:53 PM,15.1,-9.0,34,30.21,10.0,NE,16.1,-,N/A,,Mostly Cloudy,40,2013-11-18 21:53:00
1:53 PM,14.0,-9.0,35,30.21,10.0,NE,16.1,23.0,N/A,,Mostly Cloudy,50,2013-11-18 22:53:00
2:53 PM,14.0,-9.0,35,30.20,10.0,NNE,11.5,19.6,N/A,,Overcast,20,2013-11-18 23:53:00
3:53 PM,14.0,-8.0,37,30.20,10.0,NNE,11.5,-,N/A,,Overcast,30,2013-11-19 00:53:00
4:53 PM,12.9,-7.1,41,30.19,10.0,NE,12.7,-,N/A,,Overcast,40,2013-11-19 01:53:00
5:53 PM,12.0,-7.1,42,30.18,10.0,NNE,12.7,18.4,N/A,,Partly Cloudy,20,2013-11-19 02:53:00
6:53 PM,12.0,-7.1,42,30.19,10.0,NNE,10.4,-,N/A,,Scattered Clouds,20,2013-11-19 03:53:00
7:53 PM,12.0,-7.1,42,30.18,10.0,NNE,13.8,-,N/A,,Clear,20,2013-11-19 04:53:00
8:53 PM,10.9,-8.0,42,30.18,10.0,NNE,11.5,21.9,N/A,,Clear,20,2013-11-19 05:53:00
9:53 PM,10.9,-9.0,40,30.18,10.0,NNE,16.1,-,N/A,,Clear,30,2013-11-19 06:53:00
10:53 PM,10.9,-9.0,40,30.18,10.0,NNE,13.8,-,N/A,,Clear,20,2013-11-19 07:53:00
11:53 PM,10.0,-9.0,42,30.19,10.0,NNE,11.5,20.7,N/A,,Clear,20,2013-11-19 08:53:00